TimeCST,TemperatureF,Dew PointF,Humidity,Sea Level PressureIn,VisibilityMPH,Wind Direction,Wind SpeedMPH,Gust SpeedMPH,PrecipitationIn,Events,Conditions,WindDirDegrees,DateUTC
12:55 AM,44.6,33.8,66,30.27,10.0,Calm,Calm,-,N/A,,Overcast,0,2013-01-27 06:55:00
1:55 AM,44.6,33.8,66,30.26,10.0,East,3.5,-,N/A,,Overcast,80,2013-01-27 07:55:00
2:15 AM,44.6,33.8,66,30.25,10.0,East,4.6,-,N/A,,Overcast,90,2013-01-27 08:15:00
2:35 AM,44.6,33.8,66,30.25,10.0,East,5.8,-,N/A,,Overcast,80,2013-01-27 08:35:00
2:55 AM,44.6,33.8,66,30.25,10.0,East,4.6,-,N/A,,Overcast,90,2013-01-27 08:55:00
3:15 AM,44.6,33.8,66,30.24,10.0,East,4.6,-,N/A,,Overcast,100,2013-01-27 09:15:00
3:35 AM,46.4,35.6,66,30.24,10.0,Calm,Calm,-,N/A,,Overcast,0,2013-01-27 09:35:00
3:55 AM,44.6,35.6,71,30.24,10.0,East,4.6,-,N/A,,Overcast,100,2013-01-27 09:55:00
4:15 AM,46.4,35.6,66,30.24,10.0,East,3.5,-,N/A,,Overcast,90,2013-01-27 10:15:00
4:35 AM,46.4,35.6,66,30.23,10.0,East,4.6,-,N/A,,Overcast,90,2013-01-27 10:35:00
4:55 AM,46.4,35.6,66,30.24,10.0,East,4.6,-,N/A,,Overcast,80,2013-01-27 10:55:00
5:55 AM,46.4,35.6,66,30.24,10.0,East,4.6,-,N/A,,Overcast,90,2013-01-27 11:55:00
6:55 AM,46.4,35.6,66,30.25,10.0,East,4.6,-,N/A,,Overcast,80,2013-01-27 12:55:00
7:55 AM,46.4,37.4,71,30.25,10.0,ESE,4.6,-,N/A,,Overcast,110,2013-01-27 13:55:00
8:55 AM,48.2,37.4,66,30.25,10.0,ESE,4.6,-,N/A,,Overcast,110,2013-01-27 14:55:00
9:55 AM,51.8,39.2,62,30.25,10.0,SE,8.1,-,N/A,,Overcast,130,2013-01-27 15:55:00
10:55 AM,53.6,42.8,67,30.24,10.0,SE,5.8,-,N/A,,Overcast,130,2013-01-27 16:55:00
11:55 AM,60.8,46.4,59,30.22,10.0,SSE,11.5,-,N/A,,Mostly Cloudy,150,2013-01-27 17:55:00
12:55 PM,60.8,48.2,63,30.17,10.0,SSE,8.1,-,N/A,,Mostly Cloudy,160,2013-01-27 18:55:00
1:55 PM,64.4,50.0,59,30.17,10.0,Variable,6.9,-,N/A,,Mostly Cloudy,0,2013-01-27 19:55:00
2:55 PM,62.6,51.8,68,30.15,10.0,SE,8.1,-,N/A,,Mostly Cloudy,130,2013-01-27 20:55:00
3:55 PM,62.6,51.8,68,30.13,10.0,SE,6.9,-,N/A,,Mostly Cloudy,140,2013-01-27 21:55:00
4:55 PM,62.6,51.8,68,30.13,10.0,SE,8.1,-,N/A,,Mostly Cloudy,130,2013-01-27 22:55:00
5:55 PM,59.0,50.0,72,30.14,10.0,SE,5.8,-,N/A,,Mostly Cloudy,130,2013-01-27 23:55:00
6:55 PM,59.0,51.8,77,30.15,10.0,SE,8.1,-,N/A,,Clear,140,2013-01-28 00:55:00
7:55 PM,57.2,51.8,82,30.15,10.0,SE,11.5,-,N/A,,Clear,130,2013-01-28 01:55:00
8:55 PM,57.2,50.0,77,30.12,10.0,SE,10.4,-,N/A,,Clear,140,2013-01-28 02:55:00
9:55 PM,57.2,51.8,82,30.12,10.0,SSE,9.2,-,N/A,,Clear,150,2013-01-28 03:55:00
10:55 PM,59.0,53.6,82,30.12,10.0,SSE,10.4,-,N/A,,Clear,150,2013-01-28 04:55:00
11:55 PM,60.8,53.6,77,30.12,10.0,SSE,10.4,-,N/A,,Partly Cloudy,150,2013-01-28 05:55:00